Regional Weather Roundup
Issued by NWS Boston, MA

Home | Current Version | Previous Version | Text Only | Print | Product List | Glossary On
Versions: 1 2 3 4 5 6 7 8 9 10 11 12 13 14 15 16 17 18 19 20 21 22 23 24 25 26 27 28 29 30 31 32 33 34 35 36 37 38 39 40 41 42 43 44 45 46 47 48 49 50
748
ASUS41 KBOX 170310
RWRBOX

REGIONAL WEATHER ROUNDUP
NATIONAL WEATHER SERVICE TAUNTON MA
1000 PM EST SAT DEC 16 2017

NOTE:  "FAIR" INDICATES FEW OR NO CLOUDS BELOW 12,000 FEET WITH NO
SIGNIFICANT WEATHER AND/OR OBSTRUCTIONS TO VISIBILITY.

MAZALL-170400-
EASTERN MASSACHUSETTS

CITY           SKY/WX    TMP DP  RH WIND       PRES   REMARKS
BOSTON         CLEAR     27  14  58 NW12G20   30.14R WCI  17
BEVERLY        CLEAR     24  16  71 W7        30.12R WCI  16
LAWRENCE       CLEAR     25  17  72 W5        30.14R WCI  19
BEDFORD        CLEAR     23  14  68 W6        30.12R WCI  16
BLUE HILL        N/A     23  15  71 NW10      30.09R WCI  12
NORWOOD        CLEAR     26  15  63 W3        30.14R
MARSHFIELD     CLEAR     27  16  63 VRB6      30.13R WCI  20
PLYMOUTH       CLEAR     26  15  63 W5        30.13R WCI  20
TAUNTON        CLEAR     26  16  65 W5        30.13R WCI  20
NEW BEDFORD    CLEAR     27  16  63 NW7G16    30.13R WCI  19
$$

MAZALL-170400-
CAPE COD AND THE ISLANDS

CITY           SKY/WX    TMP DP  RH WIND       PRES   REMARKS
FALMOUTH       CLEAR     27  16  63 NW10      30.13R WCI  17
HYANNIS        CLEAR     28  16  60 NW8       30.11R WCI  20
CHATHAM        PTCLDY    30  16  56 NW12G17   30.11R WCI  20
PROVINCETOWN   MOCLDY    30  17  58 NW18G25   30.12R WCI  18
NANTUCKET      CLEAR     31  16  54 NW16G32   30.11R WCI  20
MARTHAS VNYRD  CLEAR    N/A N/A N/A NW21G29   30.12R
$$

MAZALL-170400-
CENTRAL AND WESTERN MASSACHUSETTS

CITY           SKY/WX    TMP DP  RH WIND       PRES   REMARKS
WORCESTER      CLEAR     20  10  65 W9        30.08R WCI   9
FITCHBURG      CLEAR     24  14  65 N3        30.13R
ORANGE         NOT AVBL
SPRINGFIELD    CLEAR     24  12  60 CALM      30.15R
WESTFIELD      CLEAR     24  14  65 NW7       30.16R WCI  16
NORTH ADAMS    CLEAR     20  10  65 W8        30.14R WCI  10
PITTSFIELD     CLEAR     18  11  74 W7        30.10R WCI   9
$$

RIZALL-170400-
RHODE ISLAND

CITY           SKY/WX    TMP DP  RH WIND       PRES   REMARKS
PROVIDENCE     CLEAR     28  16  60 NW8       30.16R WCI  20
NEWPORT        CLEAR     29  16  58 NW15G21   30.13R WCI  18
BLOCK ISLAND   CLEAR     31  19  61 NW15G21   30.15R WCI  20
SMITHFIELD     CLEAR     22  16  78 W6        30.13R WCI  14
WESTERLY       CLEAR     30  18  60 NW7       30.17R WCI  23
$$

CTZALL-170400-
CONNECTICUT

CITY           SKY/WX    TMP DP  RH WIND       PRES   REMARKS
BRADLEY INTL   PTCLDY    24  13  62 NW9       30.18R WCI  14
HARTFORD       PTCLDY    28  14  55 N8        30.20R WCI  20
BRIDGEPORT     CLOUDY    33  20  58 N10       30.18R WCI  25
DANBURY        CLOUDY    29  17  61 NW8       30.17R WCI  21
GROTON         CLEAR     30  16  56 NW13      30.17R WCI  20
NEW HAVEN      CLOUDY    31  19  61 N10       30.18R WCI  22
CHESTER        FAIR      28  16  59 N10       30.16R WCI  19
MERIDEN        CLEAR     27  16  63 NE3       30.18R
WILLIMANTIC    PTCLDY    28  12  51 W8        30.17R WCI  20
OXFORD         CLEAR     24  15  68 N8        30.14R WCI  15
$$

MEZ002-015-021-024-NHZ003-005-008-011-012-014-VTZ005-008-170400-
NORTHERN NEW ENGLAND

CITY           SKY/WX    TMP DP  RH WIND       PRES   REMARKS
PORTLAND ME    CLEAR     21   6  52 VRB6      30.10R WCI  13
BANGOR ME      CLEAR     16  12  84 W5        30.03R WCI   9
CONCORD NH     CLEAR     17   9  70 NE3       30.12R
MANCHESTER NH  CLEAR     18  13  80 NW3       30.11R
NASHUA NH      CLEAR     17  11  77 NW5       30.14R WCI  10
PORTSMOUTH NH  CLEAR     21  11  64 NW12      30.10R WCI   9
JAFFREY NH     CLEAR     17  12  80 SE7       30.07R WCI   8
KEENE NH       CLEAR     13   9  84 CALM      30.14R
BURLINGTON VT  PTCLDY    15   5  64 N5        30.19R WCI   8
MT. WASHINGTON BLWGSNOW  -6  -6 100 N40         N/A  VSB 0   WCI -37
$$

NYZ052-076-170400-
EASTERN NEW YORK

CITY           SKY/WX    TMP DP  RH WIND       PRES   REMARKS
ALBANY         PTCLDY    17  10  74 CALM      30.20R
NEW YORK CITY  CLOUDY    37  24  59 NW9       30.18R WCI  30
$$

ANZALL-170400-
MARINE OBSERVATIONS

STATION/POSITION TIME  TEMP    WIND        PRES    VSBY  WAVE
                       AIR SEA DIR/SP/G                  HT/PER
                 (UTC) (F)     (DEG/KT/KT) (MB)    (MI)  (FT/S)
BOSTON BUOY      0250   31 47  300/ 17/ 23 1018.9R         3/ 4
BUZZARDS BAY     0200   32     320/ 21/ 25 1020.4R
NANTUCKET SOUND  0250   32 42  320/ 21/ 27 1019.4R         3/ 3
MASS BAY-STELLWA 0204   30 46  310/ 17/ 23 1018.6R         2/ 4
ISLE OF SHOALS   0200   27     290/ 16/ 19 1018.6R
S OF BLOCK IS    0243      52                N/A           8/ 8
$$

......................KEY.........................
  SKY/WX - SKY CONDITION/PRESENT WEATHER
  TMP    - TEMPERATURE IN FAHRENHEIT
  DWPT   - DEWPOINT IN FAHRENHEIT
  RH     - RELATIVE HUMIDITY IN PERCENT
  WIND   - DIRECTION AND SPEED IN MPH
  PRES   - MEAN SEA LEVEL PRESSURE IN INCHES OF HG
  WCI    - WIND CHILL INDEX
  VSB    - VISIBILITY IN MILES
  HX     - HEAT INDEX
  TC     - TEMPERATURE IN CELSIUS
  VRB    - VARIABLE WIND DIRECTION
  N/A    - NOT AVAILABLE




USA.gov is the U.S. government's official web portal to all federal, state and local government web resources and services.